Theta_e
330 333 336 338 338 342 342 341 341 341 343 339 337 338 339 344 347 350 351 352 352 350 349 350 349 347 346 345 346 344 343 341 341 337 337 340 342 339 340 342 345 344 346
328 331 335 337 338 339 341 340 341 339 342 340 337 338 340 343 347 350 350 350 351 351 351 348 348 348 347 345 344 343 342 341 342 335 332 329 332 337 342 343 343 344 344
327 329 333 336 338 338 339 340 340 341 340 342 341 342 343 344 343 346 348 350 351 351 352 349 347 347 347 345 345 345 341 338 340 340 335 326 324 329 335 342 342 343 342
334 332 331 335 338 339 341 341 340 341 342 342 341 340 340 339 342 343 348 350 351 352 352 350 348 347 346 346 346 347 344 341 338 340 343 336 335 329 328 339 340 342 341
333 333 332 333 339 341 340 342 341 342 344 343 342 341 340 343 344 343 345 346 349 351 352 351 349 348 347 347 346 346 344 344 341 340 338 339 337 335 332 328 330 337 342
333 335 337 336 338 341 341 341 343 341 344 343 343 341 341 341 343 344 343 345 348 351 352 353 350 348 349 349 350 348 347 345 345 343 341 339 336 334 335 333 333 336 339
333 334 332 336 334 339 340 342 343 342 343 344 344 343 343 343 343 345 345 343 345 347 351 352 351 351 349 349 350 349 348 345 345 345 345 344 341 338 336 334 335 336 338
332 332 328 327 336 342 342 343 341 342 344 343 343 345 346 346 346 346 349 348 346 345 350 346 338 337 337 338 341 350 349 348 347 344 344 345 347 342 342 338 335 335 335
330 327 329 331 338 341 343 345 346 345 342 342 347 345 344 347 349 347 348 349 347 344 342 336 336 338 339 337 336 343 349 346 348 347 346 347 349 347 348 343 343 339 330
331 329 330 335 340 342 344 345 346 343 345 339 340 341 348 346 347 351 353 351 349 347 339 336 338 339 338 336 337 339 347 348 349 349 348 347 348 347 347 345 343 341 337
332 329 332 337 341 344 343 342 342 336 338 336 335 338 350 348 347 347 348 351 351 347 337 338 340 337 335 336 337 339 346 348 349 349 348 348 347 347 346 345 344 342 340
331 331 334 336 339 341 341 341 337 338 335 334 336 339 350 354 351 349 349 349 351 350 340 339 337 332 334 337 342 344 347 350 350 350 349 348 349 347 348 346 345 345 344
330 331 330 329 331 334 335 336 331 331 333 333 333 333 343 355 354 354 353 355 355 349 344 340 340 334 337 338 341 343 346 345 350 351 350 348 347 348 347 346 347 347 346
329 328 329 328 329 331 332 333 334 332 331 332 335 338 350 356 356 357 356 357 356 351 347 344 342 338 336 337 339 342 344 344 346 349 351 352 348 350 348 347 345 347 345
329 329 329 328 328 329 330 332 335 337 337 334 335 339 348 355 355 355 355 356 352 347 344 342 338 335 337 337 336 338 340 339 341 343 344 347 350 351 349 350 346 347 343
336 336 334 332 331 331 334 339 339 342 345 347 348 350 348 349 350 352 351 350 347 343 336 334 336 334 335 335 336 340 339 338 338 336 339 342 347 347 344 342 344 347 345
341 341 340 340 340 341 344 343 345 346 344 345 350 352 351 348 346 347 346 344 342 343 340 336 334 334 335 335 336 340 334 330 329 333 336 338 344 343 344 341 340 340 342
334 335 334 335 336 340 344 343 344 345 345 346 346 348 349 350 345 344 345 347 345 343 342 342 342 339 339 334 332 333 326 325 327 330 333 333 335 337 340 343 347 348 346
333 330 331 333 336 338 340 340 338 338 338 337 337 340 341 342 343 342 342 340 340 339 336 334 331 330 331 328 327 326 323 325 326 329 331 331 334 335 333 343 345 342 342
332 329 328 328 330 331 335 332 331 330 331 332 333 333 333 334 334 335 338 342 343 343 340 337 335 331 331 326 325 324 322 320 321 323 327 330 332 330 329 340 341 338 337
328 327 325 324 324 324 325 327 329 328 331 332 331 331 331 331 333 331 331 332 332 335 337 339 339 336 331 330 323 322 323 323 320 323 330 332 326 323 322 327 342 339 332
323 322 320 320 322 322 322 321 324 327 328 327 326 326 327 330 333 329 329 329 328 327 327 332 337 340 338 326 324 322 321 326 324 330 338 333 324 322 321 324 329 325 326
319 320 320 321 322 323 322 320 324 325 324 324 323 324 326 327 328 326 325 324 324 324 325 327 328 330 335 342 329 325 324 324 326 335 336 325 320 318 321 323 323 322 327
320 321 321 320 321 323 323 322 323 323 324 323 322 322 320 320 321 322 323 322 322 321 324 325 325 326 329 331 335 336 336 327 328 330 330 327 327 325 330 330 330 334 338
321 320 320 319 319 320 321 322 323 323 324 322 320 319 319 319 320 320 320 321 323 323 322 322 323 324 325 327 323 324 333 334 331 327 329 332 331 332 331 332 334 335 336
318 318 318 318 319 321 321 321 321 320 318 318 318 318 318 319 319 319 320 315 313 311 308 307 312 323 315 310 309 307 306 307 304 322 327 328 330 332 333 332 333 331 333
Wind_Speed
7 9 13 13 12 10 10 9 9 8 6 3 3 2 3 3 2 4 6 7 5 6 6 4 3 3 4 5 5 3 5 3 2 1 2 4 6 7 6 4 4 5 6
6 8 12 14 15 15 14 10 10 7 7 3 3 2 2 2 2 3 4 6 6 7 6 6 5 5 3 4 5 4 2 3 4 2 1 4 4 2 5 4 4 7 3
5 6 12 16 14 15 15 13 11 10 7 6 3 2 2 2 1 1 3 6 7 7 6 6 5 5 4 4 4 5 5 3 2 5 3 1 3 3 1 3 5 6 5
2 6 7 8 13 16 12 11 10 9 7 7 5 5 4 4 4 4 4 5 7 7 6 6 6 5 3 5 5 4 4 3 4 2 5 2 2 1 5 2 3 4 6
17 19 12 12 12 11 12 11 10 9 9 10 9 6 5 4 3 3 5 5 5 6 5 6 6 5 4 5 5 4 5 4 3 3 2 3 3 2 3 4 3 2 5
18 15 13 13 12 11 11 9 10 11 10 10 10 10 9 7 5 5 4 4 5 5 7 5 6 5 6 6 6 6 6 5 5 3 3 4 3 3 4 6 5 5 4
13 16 13 10 10 12 9 8 9 10 8 10 11 11 11 10 9 8 5 5 4 3 7 7 6 3 4 6 6 6 7 6 5 7 6 4 5 3 3 2 4 4 3
18 14 9 7 9 13 11 11 10 7 2 5 7 9 8 7 8 8 6 4 5 5 4 9 9 7 5 5 8 8 7 7 7 8 6 5 6 5 6 4 4 3 3
14 6 7 10 11 13 12 10 8 11 12 10 9 7 9 9 8 5 4 5 4 2 6 6 7 7 4 5 4 5 10 6 6 7 8 8 7 6 6 6 5 4 2
11 7 8 7 8 11 10 14 15 14 15 7 12 12 13 11 7 6 8 7 4 7 8 7 7 6 4 3 3 4 8 8 5 6 7 7 6 6 6 6 4 4 4
6 3 7 7 11 12 13 14 12 12 12 9 16 9 16 11 10 10 9 5 4 8 9 9 9 6 1 2 4 3 8 10 7 7 8 10 7 5 5 4 4 5 5
3 5 6 7 8 10 6 5 12 12 10 9 9 15 16 14 8 9 8 6 9 6 10 9 6 5 6 10 9 4 9 11 9 8 7 9 6 8 8 6 7 6 8
4 5 6 6 5 6 7 6 11 9 8 9 8 9 10 13 12 10 7 7 7 6 8 8 7 7 8 5 6 5 9 6 6 6 8 10 6 9 6 7 7 6 5
7 4 4 6 6 7 8 7 5 2 2 2 2 7 13 13 11 9 7 7 7 6 8 9 10 9 7 6 7 8 12 7 5 5 6 10 7 10 9 7 8 6 5
7 8 8 7 7 5 6 6 6 2 5 6 8 13 13 11 7 6 6 7 6 5 7 7 7 6 5 6 6 9 11 8 7 6 6 9 11 13 12 5 7 5 5
10 8 7 7 8 8 7 6 6 6 4 6 7 7 7 6 3 5 5 5 5 6 6 7 7 7 6 9 11 9 7 7 5 7 7 8 10 7 9 11 15 9 7
12 10 8 7 6 7 7 7 6 5 5 6 3 1 4 1 2 4 4 6 6 5 6 6 6 7 8 9 11 9 5 5 6 7 6 7 6 6 6 8 12 13 17
7 6 5 4 1 1 1 4 4 3 4 5 5 6 4 3 2 2 3 2 3 5 5 6 6 5 7 9 9 6 4 4 6 7 6 7 7 6 6 6 9 8 7
7 7 6 6 6 7 7 8 7 7 7 7 6 6 7 6 5 5 5 5 4 4 5 4 6 7 8 10 8 4 3 4 6 5 6 7 7 11 8 7 4 8 8
9 9 8 7 9 6 8 8 6 5 6 5 4 4 5 5 5 4 4 3 3 4 4 6 6 8 10 8 7 7 3 5 4 6 7 11 10 8 11 8 5 10 9
10 8 7 8 8 7 7 8 6 5 2 2 2 2 1 1 2 3 2 3 4 5 5 5 6 7 7 10 10 8 5 6 5 6 7 4 12 13 11 13 5 11 6
8 7 8 7 5 6 8 7 6 4 4 3 2 2 3 3 3 3 3 4 5 6 6 5 6 5 7 11 11 13 14 11 7 10 8 6 13 14 13 7 10 8 5
7 5 7 7 5 6 7 7 6 5 4 2 3 3 3 4 4 4 5 4 5 4 5 5 6 7 5 5 12 14 14 15 8 9 8 7 12 12 8 10 11 6 4
6 5 7 5 3 2 2 2 3 4 3 4 5 5 5 7 5 4 4 4 5 4 5 6 6 7 7 6 4 5 6 11 7 12 8 8 9 11 10 9 7 5 5
4 5 5 4 4 3 3 2 4 3 5 5 6 6 5 6 7 6 6 6 7 7 6 6 6 6 8 8 9 9 6 6 9 4 3 3 5 5 7 7 7 6 5
4 3 4 3 2 0 2 3 2 1 1 4 4 4 4 5 5 6 8 11 15 15 15 16 13 10 13 15 16 16 15 15 2 2 4 5 6 7 7 7 7 5 8
Wind_Direction
210 175 179 174 167 168 166 177 170 183 163 149 165 192 191 188 216 209 214 199 195 215 205 217 199 172 179 199 192 177 195 242 181 54 291 269 228 225 228 220 224 223 216
193 172 180 173 176 176 182 185 192 179 191 175 159 155 162 206 204 215 227 212 204 211 203 204 211 197 196 189 197 186 172 218 174 157 125 324 325 284 223 193 219 234 200
228 210 184 179 180 186 185 188 190 186 191 182 105 55 48 58 106 215 228 220 213 213 208 206 212 216 206 208 209 200 189 214 222 198 170 263 247 320 1 201 212 226 209
113 226 221 212 196 189 192 195 187 183 191 180 166 164 178 180 224 218 221 226 220 219 213 210 209 220 217 234 221 203 204 166 224 187 230 238 158 235 328 288 243 230 238
189 211 200 198 196 188 184 184 198 193 193 187 188 185 201 200 214 228 227 220 225 233 226 222 207 217 214 233 239 228 212 204 207 189 158 220 220 215 208 281 292 295 239
202 215 199 177 186 181 183 170 174 205 192 197 201 196 204 209 218 226 226 226 218 225 231 213 219 220 222 235 232 223 214 212 221 220 203 183 181 205 215 240 262 243 253
178 199 203 193 166 181 168 168 176 205 208 209 202 207 215 209 213 225 219 214 221 229 231 212 215 253 315 292 265 235 230 220 213 219 221 215 227 183 196 205 266 260 300
214 198 207 169 179 145 179 188 178 169 87 32 317 303 266 235 233 223 214 211 210 216 16 65 82 58 38 359 341 301 257 210 217 218 216 216 232 198 199 200 184 283 259
236 137 182 198 167 154 169 160 94 78 60 21 336 273 277 265 253 249 239 213 204 124 126 134 148 163 207 240 241 283 286 236 222 224 216 219 229 219 212 215 213 190 257
270 155 193 164 125 134 121 112 127 166 180 194 273 278 264 250 258 240 228 218 182 146 162 180 195 208 282 97 198 303 286 244 230 226 223 233 233 222 209 208 207 190 201
270 305 147 123 129 134 148 169 157 144 161 172 260 272 266 241 229 240 256 242 171 165 174 198 212 215 41 260 233 210 274 250 238 221 225 240 235 231 226 208 193 199 182
14 62 91 116 147 158 187 171 148 186 189 188 194 230 257 249 225 227 245 222 235 166 186 211 209 189 181 216 217 158 245 236 237 241 231 238 243 237 231 213 216 204 200
100 105 107 127 164 200 215 195 161 178 167 171 197 236 267 246 239 233 224 215 221 171 200 208 229 211 234 208 284 290 276 273 236 235 240 249 215 245 236 237 239 217 196
157 162 158 194 201 214 232 221 143 144 222 92 292 258 252 235 229 232 225 217 221 184 203 212 222 216 223 206 255 269 272 259 266 274 273 268 242 241 242 232 237 233 198
179 185 174 198 214 254 294 311 311 265 177 226 223 244 247 242 228 221 217 221 206 193 215 227 231 229 205 203 221 261 274 284 297 295 268 269 258 250 247 247 241 221 215
187 195 195 187 202 211 224 246 255 255 244 252 229 224 203 212 217 233 214 203 206 221 208 225 226 245 239 222 218 220 241 262 269 275 269 262 266 261 267 257 252 220 199
179 184 193 197 205 215 205 211 205 223 215 221 229 18 81 85 239 228 199 212 226 233 234 237 226 242 254 255 253 254 228 243 247 249 257 279 274 284 287 289 274 241 233
145 138 139 140 198 235 129 86 84 77 90 24 30 19 346 347 341 285 265 218 202 224 231 241 237 249 261 247 252 240 233 267 269 259 255 258 285 278 270 289 284 267 240
133 126 130 119 93 75 69 78 59 60 58 57 49 42 44 35 26 9 318 306 286 259 249 246 262 250 259 221 243 199 241 255 273 279 264 251 262 260 236 233 263 275 257
139 139 128 123 111 123 124 107 102 79 63 56 52 40 35 33 12 354 344 301 286 278 275 271 250 262 275 268 235 190 209 256 267 269 250 241 242 275 283 243 196 258 247
136 127 120 121 132 135 111 100 108 97 128 80 58 51 36 303 241 300 301 314 319 317 308 286 275 266 254 271 261 207 214 239 250 256 273 237 229 242 228 229 223 217 244
139 131 123 124 134 125 110 120 122 180 180 184 220 268 275 284 303 304 293 305 310 305 293 276 279 258 258 247 252 243 216 241 232 261 261 225 219 233 253 248 248 277 312
134 117 127 131 141 144 136 139 198 195 206 230 289 276 253 243 246 246 271 290 287 281 287 288 289 288 276 258 250 254 251 248 240 251 257 227 210 220 241 245 253 253 242
126 133 131 134 148 170 168 190 207 211 223 249 259 267 272 280 274 251 236 238 252 253 250 266 273 275 279 276 265 247 255 252 237 250 259 226 215 206 230 235 228 210 235
170 174 161 175 220 195 259 302 309 315 292 298 297 296 287 281 281 260 245 240 234 217 248 244 240 256 269 267 251 259 268 259 247 216 196 218 211 226 236 236 232 220 219
177 178 214 212 236 353 325 327 349 47 287 292 286 272 274 275 268 273 283 251 245 256 247 250 246 260 248 269 268 268 267 262 268 249 230 238 229 222 225 230 227 205 215